Wetbulb
55.81 55.90 56.06 56.30 56.28 56.43 56.64 56.51 56.46 56.48 56.50 56.50 56.53 56.78 56.81 56.95 57.20 57.57 57.61 57.90 58.30 58.14 58.11 58.66 59.01 59.39 63.19 62.43 62.15 67.56 70.95 68.96 65.67 61.17 60.31 60.19 58.32 58.88 58.24 60.67 60.93 60.61 59.99 61.08 61.68 61.78 62.11
55.66 55.65 55.76 55.99 56.06 56.05 56.13 56.13 56.17 56.14 56.01 56.01 56.03 56.13 56.20 56.46 56.97 57.42 57.54 57.41 57.46 57.71 58.22 59.34 59.11 58.62 64.14 55.97 66.81 66.02 64.12 64.26 62.23 60.48 60.77 61.07 59.44 60.40 59.44 59.24 59.86 61.17 60.72 61.38 61.87 61.60 61.85
55.25 55.10 55.08 55.42 55.51 55.48 55.60 55.67 55.67 55.59 55.46 55.50 55.37 55.51 55.65 55.90 56.21 56.63 56.98 56.71 56.77 57.69 59.59 60.17 59.09 63.28 59.75 57.57 66.98 66.65 63.68 62.62 61.32 60.66 60.37 62.47 61.93 59.17 59.99 59.08 61.09 60.59 59.01 60.84 60.99 60.98 60.01
55.14 54.72 54.92 55.05 55.12 55.02 55.12 55.16 55.11 55.06 54.90 54.77 54.87 54.95 55.11 55.35 55.60 55.68 55.98 55.74 56.63 59.14 59.50 58.84 59.82 64.41 57.91 62.87 67.00 64.44 64.18 61.93 61.80 61.02 63.10 63.57 63.01 60.50 59.31 60.69 59.35 58.73 59.02 55.42 60.41 59.60 60.48
54.84 54.88 54.80 54.44 54.39 54.22 54.50 54.62 54.57 54.46 54.27 54.17 54.33 54.51 54.69 54.95 55.09 55.39 55.17 55.19 57.88 60.67 60.06 60.62 65.22 62.43 57.41 63.57 61.26 65.31 64.18 60.49 60.10 61.05 62.79 62.78 61.94 59.45 58.43 54.81 53.82 55.60 52.52 54.99 55.35 59.38 58.22
53.69 54.40 54.07 53.87 54.02 53.91 54.00 54.01 53.93 53.82 53.80 53.98 54.19 54.41 54.56 54.72 54.96 54.74 54.59 55.46 59.72 60.24 62.53 65.64 64.36 59.51 58.77 55.84 60.49 63.91 64.37 60.67 57.87 58.89 59.02 59.72 58.68 56.15 55.52 54.26 49.24 51.34 51.82 52.63 52.53 56.91 57.57
53.59 53.17 53.12 53.55 53.49 53.61 53.46 53.30 53.30 53.23 53.25 53.64 53.92 54.02 54.10 54.08 54.18 54.02 56.23 62.16 61.92 60.50 62.68 58.04 58.58 55.79 56.44 61.95 62.47 61.22 62.69 59.54 59.54 57.27 55.41 57.83 54.36 52.00 54.13 55.19 55.33 54.72 52.61 51.84 54.03 56.46 55.77
54.42 53.82 53.50 53.04 53.48 53.26 52.98 52.80 52.75 52.82 52.96 53.02 53.16 53.73 53.78 53.71 53.43 53.39 57.03 59.14 57.61 57.72 54.19 58.31 57.58 57.76 59.20 61.90 57.20 59.48 61.93 57.33 56.44 54.08 56.78 55.48 51.87 55.35 55.27 54.55 53.73 53.21 52.34 52.70 54.51 56.75 56.02
53.10 53.11 52.74 52.92 53.13 52.53 52.45 52.40 52.15 52.31 52.50 52.58 52.83 53.20 53.12 52.84 52.69 56.92 59.81 58.77 60.18 60.07 54.60 55.69 56.83 55.86 56.84 59.83 57.51 58.01 59.44 58.41 56.52 54.73 55.12 53.24 55.07 55.78 54.03 53.29 52.51 53.03 52.32 52.70 52.81 55.75 56.59
53.62 52.26 52.75 52.86 52.37 52.07 51.94 51.81 51.93 52.18 52.29 52.50 52.83 52.77 52.52 51.36 53.72 57.15 57.68 60.44 60.44 60.25 51.67 52.63 53.08 55.21 57.06 58.58 56.17 61.74 60.78 59.52 57.90 55.18 55.40 54.58 56.18 53.60 53.36 52.83 53.96 52.08 55.50 53.77 53.15 53.04 50.78
53.24 52.13 52.15 52.39 51.76 51.54 51.33 51.35 51.51 51.76 52.21 52.39 52.23 52.13 51.85 50.97 55.57 54.70 59.40 59.83 60.02 59.55 44.34 53.61 53.38 59.16 57.69 55.46 56.94 58.03 62.13 60.11 56.86 55.90 56.26 53.92 53.93 53.55 52.51 53.12 54.65 53.62 56.71 54.43 54.56 53.34 52.91
52.60 52.38 52.18 51.74 51.13 51.20 50.90 51.45 51.81 52.04 51.96 51.86 51.88 51.59 51.19 57.19 58.09 57.46 57.81 59.38 59.34 49.31 43.34 50.63 54.11 52.80 53.16 54.51 55.74 58.13 59.50 61.50 60.46 57.08 57.05 56.13 57.35 56.21 55.23 55.99 56.14 56.76 55.08 55.14 55.11 53.39 48.54
52.06 52.72 52.32 51.88 50.90 50.51 50.59 51.66 51.68 51.75 51.64 51.44 51.16 50.66 51.75 56.84 55.17 57.76 57.94 57.22 48.71 45.40 52.22 50.40 51.11 53.16 52.72 52.15 53.50 56.26 56.24 56.01 54.67 52.43 52.77 54.55 54.97 56.40 56.74 54.22 56.47 55.57 53.58 48.68 48.24 48.48 47.26
51.34 51.15 51.36 51.52 50.80 50.25 51.07 51.30 51.24 51.50 51.11 50.78 50.11 49.95 54.46 55.99 58.53 57.57 56.93 52.22 45.51 49.19 49.69 52.80 52.22 52.85 50.87 52.79 53.44 54.74 55.15 54.18 56.55 55.56 53.33 51.45 49.59 54.90 56.98 54.99 53.85 54.65 53.97 49.00 45.17 45.65 47.83
50.56 50.51 50.40 50.23 50.16 50.61 51.12 50.99 51.20 51.00 50.52 49.91 49.03 58.19 56.61 57.93 58.27 57.56 54.05 47.07 48.33 50.62 50.74 50.30 51.05 50.28 50.89 52.33 52.84 54.19 54.48 54.43 56.07 56.62 53.10 51.63 50.68 55.54 55.46 56.21 55.64 53.78 51.61 55.11 50.91 52.00 49.17
50.24 50.02 49.46 49.86 49.84 50.55 50.75 51.20 51.00 50.68 50.13 49.47 54.15 55.40 56.69 59.44 58.90 55.34 51.10 46.90 50.74 50.81 50.63 50.96 48.85 51.45 49.67 50.79 50.40 52.85 53.34 55.75 55.30 57.29 58.04 54.85 50.77 55.03 55.12 56.01 56.19 55.04 56.87 51.24 51.35 46.45 45.16
49.83 49.30 49.23 49.37 49.76 50.21 50.61 50.74 50.43 50.00 49.57 49.32 55.50 53.13 56.37 57.42 56.86 52.04 46.56 49.95 51.87 51.46 51.31 49.71 49.12 50.56 52.00 51.00 51.64 51.55 52.30 53.79 56.07 56.36 57.33 55.75 53.95 52.60 54.39 53.20 52.57 54.06 52.66 53.78 53.07 52.42 47.33
49.64 49.42 49.00 49.33 51.09 50.67 50.44 50.38 50.01 49.28 48.47 51.11 56.11 50.13 56.69 57.59 48.72 50.36 48.48 51.19 48.33 50.60 51.86 50.70 51.65 50.36 50.82 51.72 51.18 51.58 51.71 54.22 55.58 55.93 53.58 55.92 54.52 51.16 52.30 55.70 55.70 55.06 54.76 55.06 50.46 50.48 52.23
49.46 49.18 48.92 50.31 50.08 50.25 50.18 50.23 49.60 48.90 48.57 53.01 54.93 53.83 56.94 56.21 46.30 48.36 51.13 50.02 50.32 50.43 50.40 49.97 49.85 51.86 52.38 50.70 50.37 52.06 52.40 54.26 53.94 55.07 54.89 56.73 52.91 49.45 51.05 53.31 55.35 52.81 53.58 54.91 56.12 56.06 52.82
49.09 49.14 49.20 49.48 49.41 49.97 50.31 50.31 49.70 49.02 48.91 52.09 55.61 48.62 52.08 52.15 53.20 51.14 50.24 49.48 48.49 50.60 50.43 50.88 50.66 51.76 51.61 51.34 53.79 51.75 51.45 52.47 53.30 54.63 60.81 60.52 54.71 52.68 48.42 50.35 54.44 52.55 52.75 53.95 54.42 51.70 51.88
49.17 49.32 49.47 49.04 49.17 49.00 50.03 50.21 49.79 48.96 48.93 52.94 55.74 53.25 53.43 47.26 49.58 50.87 51.23 50.22 48.21 48.55 51.54 52.59 50.70 50.46 50.41 49.92 51.05 50.80 52.52 52.44 53.07 55.48 55.89 57.02 53.21 54.23 54.17 53.21 53.23 53.10 52.70 53.38 52.71 53.89 51.90
49.11 49.20 49.24 48.74 49.06 48.94 49.35 50.01 49.61 48.84 47.87 54.45 52.31 52.82 52.90 53.41 52.95 50.85 48.30 49.89 48.95 49.57 51.55 49.67 49.56 50.58 50.74 50.01 51.30 50.72 52.86 53.51 53.11 55.13 55.09 57.65 53.58 54.91 52.87 53.75 52.70 51.45 52.54 52.91 53.72 54.12 54.79
49.07 49.52 49.02 48.46 49.28 48.70 48.91 49.39 49.48 48.40 48.41 54.05 54.22 56.63 54.21 49.05 50.38 49.83 50.42 50.53 50.10 51.36 52.78 54.42 52.97 51.93 51.60 53.10 55.62 57.57 58.11 58.78 58.34 56.70 55.58 56.45 54.90 52.77 50.13 52.70 52.27 50.28 52.78 52.84 53.88 56.17 55.86
48.97 48.40 48.22 48.37 48.79 48.40 48.91 49.15 49.57 48.78 47.70 52.46 52.82 52.85 50.51 48.02 49.90 49.38 49.71 50.87 50.55 51.96 51.86 53.05 54.63 53.54 57.37 59.47 58.12 57.16 56.03 55.73 56.56 56.98 58.26 56.03 56.19 54.81 50.61 52.59 45.60 54.01 57.38 56.97 54.73 55.56 57.06
48.14 47.81 48.05 48.20 48.18 48.24 49.30 49.00 49.17 49.30 48.25 51.91 52.99 51.65 50.74 47.55 50.44 50.03 50.47 50.66 52.23 53.22 52.35 52.72 54.34 58.08 59.14 56.45 52.23 50.75 50.65 51.59 52.34 53.79 55.76 56.85 54.62 50.95 48.57 47.94 51.75 53.46 55.81 55.71 54.38 54.73 58.30
47.95 47.64 48.05 47.76 48.33 48.61 49.11 48.77 48.92 49.31 48.33 51.11 52.64 52.93 51.11 47.76 48.04 49.84 49.36 51.01 50.33 51.01 51.57 52.48 56.02 58.69 56.80 53.06 50.89 46.74 45.74 49.00 48.88 50.26 54.62 54.91 56.54 51.40 50.15 46.23 44.95 53.80 57.96 61.26 59.31 53.55 60.86
48.07 47.63 47.75 47.46 48.27 48.57 48.65 48.38 48.79 48.65 48.38 48.91 52.13 53.18 50.63 47.01 50.88 49.76 47.54 49.23 51.60 51.54 50.85 53.43 53.96 53.56 56.03 50.51 48.35 48.18 47.38 51.99 47.92 48.86 50.25 50.35 51.42 47.98 47.83 47.58 49.96 57.01 62.54 63.45 52.10 56.45 66.56
48.29 47.68 47.45 47.34 47.82 47.85 48.00 48.28 48.55 48.44 48.40 48.88 51.21 52.55 49.17 48.22 49.80 48.99 50.10 50.63 51.25 51.29 49.08 53.07 52.09 52.26 52.84 48.71 48.34 49.06 49.07 50.58 50.07 52.67 52.60 51.63 49.08 48.27 48.81 47.07 45.04 60.62 61.19 56.98 63.96 67.00 67.70
48.90 47.71 47.22 47.19 47.98 48.02 47.54 47.98 48.40 47.91 48.35 48.63 50.93 53.75 51.80 46.55 48.52 51.04 51.02 51.94 52.68 53.41 51.91 54.39 52.16 54.45 53.38 50.44 51.37 51.95 50.44 52.02 51.55 47.40 55.12 51.30 54.09 52.92 52.74 51.30 63.35 64.17 65.27 66.84 67.55 66.75 67.58
MSLP
1021.78 1021.48 1021.26 1021.05 1020.86 1020.60 1020.37 1019.96 1019.49 1019.16 1018.78 1018.34 1017.91 1017.50 1017.01 1016.40 1016.00 1015.63 1015.16 1014.75 1014.33 1013.63 1013.46 1012.83 1012.58 1012.22 1011.45 1008.75 1006.86 1007.91 1008.39 1008.34 1007.86 1006.86 1005.76 1004.82 1004.02 1003.19 1002.41 1001.97 1002.15 1001.58 1001.34 1001.54 1001.22 1001.07 1001.14
1022.17 1021.82 1021.62 1021.50 1021.19 1020.88 1020.55 1020.23 1019.88 1019.51 1019.06 1018.56 1018.05 1017.70 1017.17 1016.62 1016.12 1015.47 1014.97 1014.50 1014.03 1013.44 1013.05 1012.60 1012.31 1012.27 1010.29 1007.49 1006.63 1007.51 1007.19 1007.43 1006.56 1006.13 1005.50 1004.97 1003.98 1003.81 1002.82 1002.67 1002.25 1001.82 1001.92 1001.47 1001.13 1000.82 1000.76
1022.54 1022.25 1022.03 1021.80 1021.44 1021.18 1020.80 1020.41 1020.08 1019.72 1019.28 1018.88 1018.43 1017.82 1017.25 1016.71 1016.08 1015.51 1015.01 1014.47 1013.73 1013.14 1012.72 1012.39 1012.22 1011.63 1008.98 1006.89 1006.64 1006.86 1006.88 1006.27 1006.37 1005.73 1005.25 1005.30 1004.85 1004.23 1003.16 1002.51 1002.43 1002.37 1001.83 1000.88 1000.55 1000.58 1000.56
1022.88 1022.62 1022.37 1022.08 1021.70 1021.35 1021.02 1020.68 1020.31 1019.89 1019.42 1019.03 1018.53 1017.95 1017.38 1016.69 1016.15 1015.47 1014.73 1014.07 1013.43 1012.70 1012.83 1012.27 1012.36 1010.73 1007.27 1006.72 1006.52 1006.92 1006.38 1006.36 1006.49 1006.14 1005.40 1005.56 1005.10 1004.20 1003.52 1002.69 1002.57 1001.92 1001.22 1000.09 999.42 1000.55 1000.60
1023.16 1022.96 1022.67 1022.34 1021.96 1021.65 1021.22 1020.83 1020.44 1020.09 1019.58 1019.03 1018.54 1017.94 1017.47 1016.85 1016.14 1015.45 1014.74 1013.99 1013.43 1013.08 1012.84 1012.32 1011.55 1009.40 1006.19 1007.36 1006.50 1006.10 1006.06 1005.72 1006.05 1005.90 1005.79 1005.87 1004.96 1003.50 1002.84 1002.48 1001.36 1000.74 1000.14 999.45 999.38 1000.59 1000.77
1023.55 1023.20 1022.96 1022.65 1022.27 1021.90 1021.49 1021.07 1020.69 1020.21 1019.67 1019.17 1018.50 1017.86 1017.29 1016.69 1016.07 1015.31 1014.55 1013.94 1013.17 1012.94 1012.42 1010.90 1009.93 1008.56 1006.16 1005.32 1005.43 1005.67 1005.91 1005.97 1005.67 1005.49 1005.45 1005.19 1003.99 1002.83 1002.13 1001.30 1000.12 999.57 999.51 999.48 999.99 1000.24 1000.79
1023.72 1023.52 1023.29 1022.87 1022.54 1022.18 1021.77 1021.29 1020.76 1020.32 1019.79 1019.21 1018.57 1017.88 1017.18 1016.51 1015.88 1015.26 1013.82 1012.77 1012.46 1011.46 1009.67 1007.04 1006.39 1005.61 1005.39 1005.46 1005.93 1005.59 1005.86 1005.85 1005.44 1005.18 1004.36 1004.20 1003.10 1001.75 1000.97 1001.12 1001.24 1001.22 1000.84 1000.44 1000.26 1000.53 1001.30
1024.06 1023.77 1023.50 1023.10 1022.69 1022.29 1021.93 1021.42 1020.88 1020.39 1019.86 1019.28 1018.62 1017.88 1017.13 1016.30 1015.48 1014.84 1014.32 1010.70 1010.42 1010.49 1008.07 1005.99 1005.70 1005.52 1005.51 1005.04 1004.74 1004.93 1005.52 1005.22 1004.84 1004.21 1003.85 1003.74 1002.55 1001.55 1002.44 1002.55 1002.21 1001.70 1001.22 1000.61 1000.46 1000.76 1001.25
1024.25 1023.98 1023.70 1023.27 1022.84 1022.44 1021.99 1021.51 1021.01 1020.40 1019.86 1019.30 1018.62 1017.84 1017.00 1016.10 1015.16 1013.85 1011.50 1010.33 1010.34 1009.97 1007.80 1004.67 1004.90 1004.72 1004.82 1005.17 1003.96 1004.12 1004.89 1004.48 1004.06 1003.74 1003.32 1002.56 1002.13 1002.80 1003.04 1002.59 1002.30 1001.62 1001.17 1000.73 1000.99 1000.74 1000.48
1024.46 1024.26 1023.86 1023.43 1023.03 1022.57 1022.13 1021.64 1021.08 1020.44 1019.85 1019.28 1018.56 1017.85 1017.04 1016.01 1014.84 1012.14 1010.70 1010.70 1010.19 1010.07 1007.03 1004.10 1004.19 1003.73 1003.97 1004.35 1003.60 1003.42 1004.28 1003.99 1003.62 1003.17 1002.96 1002.66 1002.22 1002.90 1002.77 1002.32 1002.18 1001.20 1001.37 1001.80 1001.48 1000.95 999.62
1024.64 1024.33 1023.97 1023.54 1023.13 1022.70 1022.26 1021.72 1021.08 1020.38 1019.79 1019.11 1018.55 1017.89 1017.13 1017.11 1014.69 1011.53 1010.96 1010.62 1010.42 1009.79 1005.32 1003.00 1003.29 1003.68 1003.35 1003.59 1002.30 1003.26 1003.89 1003.87 1003.31 1003.11 1003.37 1002.00 1002.42 1002.80 1002.60 1002.20 1002.24 1001.49 1002.07 1001.92 1001.64 1001.03 1000.28
1024.81 1024.42 1023.99 1023.54 1023.20 1022.83 1022.34 1021.72 1021.04 1020.33 1019.65 1018.88 1018.27 1017.69 1017.08 1014.78 1013.97 1011.53 1011.21 1010.77 1010.37 1008.30 1003.73 1002.53 1002.78 1003.08 1002.92 1003.05 1002.61 1002.87 1003.63 1003.83 1003.51 1003.12 1003.23 1002.43 1002.70 1002.55 1002.30 1002.30 1002.55 1002.25 1002.46 1001.91 1001.55 1000.70 999.60
1024.94 1024.50 1024.16 1023.80 1023.36 1022.87 1022.35 1021.71 1020.97 1020.10 1019.31 1018.46 1017.69 1017.23 1017.05 1014.68 1011.76 1011.69 1011.33 1010.27 1008.26 1004.93 1002.79 1001.89 1001.91 1001.96 1002.04 1002.10 1002.23 1003.06 1003.09 1003.40 1002.89 1002.80 1002.30 1002.29 1002.15 1002.38 1002.53 1002.28 1002.40 1002.41 1002.09 1001.03 1000.10 999.26 998.55
1025.08 1024.62 1024.23 1023.77 1023.28 1022.77 1022.20 1021.49 1020.71 1019.90 1019.06 1017.99 1016.95 1016.57 1014.85 1013.75 1012.40 1012.22 1011.23 1009.49 1006.18 1003.26 1002.04 1002.24 1001.57 1001.38 1001.15 1001.22 1001.50 1002.28 1002.55 1002.44 1002.54 1001.98 1000.99 1000.98 1000.73 1001.23 1001.87 1002.12 1001.51 1001.61 1001.80 1000.87 999.85 998.97 999.23
1025.22 1024.74 1024.38 1023.88 1023.36 1022.69 1022.04 1021.35 1020.58 1019.65 1018.69 1017.65 1016.21 1014.02 1012.97 1012.08 1012.37 1012.05 1010.41 1007.62 1004.63 1002.69 1002.45 1002.55 1002.48 1001.52 1000.91 1000.74 1001.03 1001.61 1001.66 1001.55 1001.41 1001.70 1001.48 1000.45 1000.53 1001.33 1001.85 1001.72 1001.99 1001.18 1001.48 1001.10 1000.67 1000.21 999.67
1025.30 1024.92 1024.59 1023.98 1023.37 1022.73 1022.07 1021.37 1020.45 1019.44 1018.47 1017.79 1015.52 1012.46 1011.12 1011.89 1011.97 1011.35 1009.49 1006.13 1003.88 1004.05 1004.25 1003.63 1002.05 1001.49 1000.69 1000.93 1001.38 1001.05 1001.12 1000.88 1000.83 1001.16 1001.76 1000.86 1000.95 1001.10 1001.81 1002.20 1001.89 1001.72 1001.29 1000.98 1000.81 1000.19 999.63
1025.35 1024.99 1024.56 1024.00 1023.42 1022.77 1022.12 1021.34 1020.51 1019.32 1017.82 1017.01 1015.07 1011.36 1011.45 1011.36 1011.32 1010.05 1007.49 1005.53 1004.54 1004.98 1005.04 1003.89 1002.74 1001.92 1001.12 1000.75 1001.07 1000.61 1000.55 1000.84 1000.73 1000.94 1001.71 1001.61 1001.83 1000.89 1001.67 1001.63 1000.88 1001.19 1001.34 1001.13 1000.40 999.99 999.68
1025.41 1024.97 1024.47 1023.90 1023.40 1022.89 1022.22 1021.41 1020.55 1019.55 1017.78 1015.81 1013.25 1010.38 1010.99 1010.96 1010.05 1008.18 1006.47 1005.20 1005.37 1005.04 1005.45 1004.41 1003.93 1003.18 1002.32 1002.14 1001.74 1000.96 1000.59 1000.56 1001.37 1001.37 1001.59 1001.75 1001.66 1001.24 1000.87 1000.38 1000.63 1000.70 1000.41 1000.60 1000.33 1000.47 1000.21
1025.47 1025.02 1024.51 1023.98 1023.49 1022.85 1022.12 1021.41 1020.66 1019.90 1019.28 1017.22 1012.48 1010.25 1010.68 1010.29 1008.04 1006.49 1005.97 1005.42 1005.86 1005.34 1005.08 1004.56 1003.98 1003.90 1003.75 1003.27 1002.64 1001.87 1001.57 1002.10 1002.72 1002.25 1002.04 1001.98 1002.07 1001.58 1001.27 1000.56 1000.59 1000.90 1000.61 1000.62 1000.63 1000.87 1000.59
1025.58 1025.09 1024.63 1024.08 1023.51 1022.83 1022.13 1021.35 1020.53 1019.77 1019.21 1018.22 1013.00 1009.89 1009.82 1009.80 1007.90 1007.28 1005.91 1006.34 1006.13 1006.00 1005.29 1005.18 1004.47 1004.64 1004.35 1003.80 1003.74 1002.94 1002.48 1003.16 1003.55 1003.08 1003.52 1003.20 1002.42 1001.85 1000.41 1001.06 1001.10 1000.41 1000.41 1000.32 1000.47 1000.47 1000.14
1025.59 1025.12 1024.72 1024.22 1023.67 1023.01 1022.31 1021.49 1020.50 1019.44 1018.58 1017.83 1012.49 1009.76 1009.78 1008.44 1007.76 1007.41 1006.59 1006.25 1005.98 1005.98 1006.39 1006.13 1005.56 1005.27 1004.70 1004.17 1003.79 1003.75 1003.17 1003.39 1004.05 1004.19 1004.15 1003.90 1003.21 1002.42 1001.67 1000.91 1000.34 1000.05 999.72 999.61 999.88 1000.22 1000.09
1025.69 1025.32 1024.88 1024.40 1023.84 1023.21 1022.46 1021.67 1020.74 1019.42 1018.03 1016.28 1013.46 1011.37 1010.41 1009.02 1008.95 1008.09 1007.61 1006.94 1006.43 1005.83 1006.02 1006.03 1005.90 1005.41 1005.24 1005.13 1004.55 1004.08 1003.75 1003.85 1003.56 1003.93 1004.06 1004.08 1003.72 1003.21 1001.89 1001.03 1000.36 1000.00 999.91 999.82 999.40 999.66 999.69
1025.80 1025.39 1024.98 1024.48 1023.94 1023.36 1022.70 1022.07 1021.32 1020.31 1018.19 1015.33 1014.68 1013.24 1012.14 1009.87 1009.30 1008.47 1007.15 1007.07 1007.04 1006.50 1006.96 1006.64 1006.02 1005.77 1006.06 1006.06 1005.62 1005.52 1005.55 1005.48 1005.24 1005.04 1004.54 1004.38 1004.14 1003.77 1002.49 1001.57 1000.45 999.94 999.79 999.50 999.29 999.04 999.13
1025.78 1025.49 1025.10 1024.65 1024.06 1023.55 1023.01 1022.43 1021.88 1021.32 1020.87 1018.43 1016.78 1015.45 1012.56 1009.67 1008.93 1008.26 1007.88 1007.96 1007.93 1008.50 1007.98 1007.53 1007.80 1007.36 1008.04 1007.90 1007.50 1007.10 1006.50 1006.05 1005.96 1005.82 1005.85 1005.45 1004.95 1004.23 1003.01 1002.04 1000.42 999.69 999.19 999.14 999.03 999.03 998.99
1025.90 1025.62 1025.30 1024.91 1024.41 1023.87 1023.36 1022.82 1022.32 1021.81 1021.15 1018.90 1017.59 1016.29 1013.75 1011.03 1009.52 1009.19 1009.38 1009.03 1008.98 1009.34 1009.57 1008.78 1008.53 1008.87 1009.07 1008.34 1007.69 1007.02 1006.38 1006.06 1005.50 1005.46 1005.64 1005.76 1005.75 1004.55 1003.75 1002.61 1001.16 999.96 999.75 999.81 999.65 999.54 999.06
1025.92 1025.69 1025.37 1025.04 1024.56 1024.10 1023.67 1023.29 1022.74 1022.20 1021.56 1019.79 1018.27 1018.04 1015.89 1013.22 1010.89 1011.14 1010.13 1009.94 1009.33 1009.25 1009.17 1009.22 1009.35 1010.11 1009.79 1008.45 1007.37 1006.33 1005.25 1004.74 1004.47 1004.66 1004.89 1005.34 1005.96 1005.74 1004.32 1003.17 1001.86 1000.60 1000.07 999.88 1000.54 1000.34 999.78
1025.82 1025.65 1025.40 1025.11 1024.72 1024.30 1023.92 1023.52 1023.07 1022.64 1022.21 1021.15 1018.60 1018.97 1017.10 1014.46 1012.59 1012.82 1011.75 1010.94 1010.56 1009.77 1008.88 1008.78 1009.30 1009.90 1009.65 1008.63 1006.90 1005.54 1004.71 1004.26 1003.61 1003.60 1004.04 1004.65 1005.17 1005.16 1004.69 1003.75 1002.79 1002.12 1001.52 1001.92 1001.76 1002.13 1002.18
1025.61 1025.54 1025.38 1025.11 1024.81 1024.43 1024.12 1023.72 1023.30 1022.92 1022.45 1021.46 1018.87 1019.34 1018.37 1015.55 1013.79 1013.97 1013.48 1012.77 1011.89 1011.63 1010.37 1009.93 1010.41 1010.10 1008.98 1008.46 1007.09 1005.56 1004.51 1003.71 1003.65 1003.47 1003.53 1004.27 1004.75 1004.68 1004.65 1003.97 1003.36 1003.17 1003.12 1003.21 1004.36 1003.93 1003.60
1025.34 1025.36 1025.27 1025.05 1024.76 1024.45 1024.21 1023.92 1023.58 1023.20 1022.76 1022.13 1018.98 1018.74 1018.81 1017.72 1014.87 1015.12 1014.79 1014.50 1014.10 1013.60 1012.94 1011.22 1010.59 1010.07 1009.00 1008.11 1007.31 1005.80 1004.69 1004.33 1004.27 1003.69 1004.20 1004.22 1004.11 1004.08 1003.95 1003.82 1004.60 1004.76 1004.84 1005.39 1005.38 1005.27 1005.17
Wind_Speed
14 14 15 15 15 14 14 14 15 15 16 17 17 18 18 19 19 19 19 19 17 16 16 13 11 10 9 9 7 7 7 7 10 7 7 7 8 8 11 2 4 10 3 3 3 5 8
14 14 15 15 15 15 15 15 15 15 16 17 18 18 19 19 19 19 19 19 19 16 15 11 9 9 8 10 3 10 8 9 6 8 3 8 3 5 7 6 10 6 6 8 8 3 6
14 14 14 15 15 15 16 17 17 17 17 17 17 19 19 20 21 20 20 20 20 16 13 7 6 8 9 2 2 8 9 3 1 7 4 1 3 10 2 10 4 10 11 15 12 4 6
15 15 14 15 15 16 17 17 17 18 18 18 18 19 20 21 21 21 21 20 19 11 9 5 6 9 8 4 1 6 7 5 5 5 6 2 6 12 9 6 11 14 17 14 10 1 6
15 15 15 15 16 16 17 18 18 19 19 20 20 20 20 21 21 20 20 19 11 7 8 6 8 7 5 5 10 11 8 6 6 5 3 5 11 12 7 13 14 15 13 19 6 6 5
14 15 15 15 16 16 17 18 19 19 20 20 20 20 21 21 20 20 20 11 5 7 9 9 7 8 7 7 11 8 6 5 7 8 7 10 9 11 11 11 11 7 12 7 4 4 3
14 14 15 16 16 16 16 18 19 20 20 21 20 21 22 22 21 20 17 7 8 9 12 11 1 6 4 5 5 9 9 9 8 9 13 9 11 12 10 4 12 10 8 8 6 2 6
14 14 16 16 16 17 18 19 19 20 21 21 22 21 22 24 23 21 10 9 9 7 10 16 12 7 4 6 8 12 12 12 10 12 12 6 13 1 3 6 8 9 9 10 4 2 9
15 16 15 15 16 18 19 20 20 20 21 22 22 22 23 24 26 10 8 7 7 8 9 11 11 14 11 11 11 16 16 16 11 14 10 16 9 3 7 9 10 11 10 6 8 4 14
15 15 14 16 17 18 20 20 21 21 21 21 21 21 22 27 7 4 7 3 7 4 8 15 11 9 15 11 11 10 17 11 9 11 10 11 3 5 9 10 8 15 6 4 9 11 9
14 15 16 16 18 19 20 21 22 22 22 21 21 21 20 12 13 7 7 5 7 5 9 14 12 8 11 14 12 13 15 12 12 9 5 5 7 9 9 8 5 4 3 7 9 12 13
16 14 16 16 19 19 21 21 21 21 22 22 22 20 21 6 9 9 7 6 6 9 10 9 10 13 16 20 10 13 15 13 9 10 11 12 1 7 12 6 8 4 8 12 12 13 13
16 17 15 16 18 20 21 20 21 22 24 24 23 20 10 8 1 6 7 8 9 11 6 11 12 18 19 15 16 13 18 18 12 12 14 14 13 10 7 9 10 10 11 10 11 12 8
15 17 18 18 20 20 20 21 23 23 25 26 26 20 9 9 6 6 7 9 12 13 8 5 3 12 18 18 18 17 17 18 20 14 12 11 15 17 11 14 10 12 12 12 16 10 5
15 16 17 18 19 19 20 22 23 24 26 26 29 7 8 5 7 6 9 12 11 9 5 7 7 12 14 15 11 17 18 19 18 17 12 8 5 8 4 7 11 14 11 15 17 18 12
15 16 17 18 18 19 20 22 24 26 27 24 7 6 6 1 6 7 10 17 8 6 3 9 12 11 13 13 12 17 17 17 17 16 15 3 6 11 10 7 9 12 9 10 9 15 16
15 16 17 17 18 19 21 22 24 27 30 22 8 7 5 7 8 9 13 19 16 4 6 6 10 5 12 12 16 15 12 4 13 15 12 15 6 8 7 11 14 10 11 12 16 11 10
15 17 17 17 18 18 20 22 24 26 32 10 7 5 6 7 10 11 13 16 4 7 9 8 5 7 4 5 8 12 16 8 5 7 17 16 8 10 14 10 6 11 12 12 10 13 11
15 17 17 19 19 19 20 22 23 23 21 9 6 3 5 8 9 10 13 7 3 13 10 9 9 5 3 5 7 9 8 13 4 9 4 9 8 11 13 12 14 11 14 13 9 12 11
14 16 17 19 20 20 21 22 24 24 20 7 6 6 5 8 10 10 14 11 12 7 10 7 6 1 7 8 5 6 7 6 4 10 9 5 11 11 14 5 12 14 14 13 14 12 13
14 16 17 18 19 21 21 23 25 27 25 6 5 3 7 8 11 11 6 7 16 11 13 10 9 11 10 8 10 7 12 9 9 5 6 9 12 14 17 18 12 11 12 14 13 15 18
13 15 16 17 18 20 21 22 24 29 32 7 7 6 3 4 6 7 8 10 12 14 7 10 14 13 11 9 10 10 11 9 10 12 13 9 8 13 16 15 14 13 12 14 16 13 19
13 14 15 16 18 19 20 21 22 26 26 5 6 4 7 7 9 10 9 9 10 4 7 11 9 13 8 5 10 10 11 7 7 8 7 8 10 11 12 17 20 14 15 15 16 14 16
12 13 14 15 17 18 19 20 20 19 20 10 5 7 7 7 7 9 4 3 5 7 8 8 3 7 9 5 5 9 13 12 12 10 9 8 8 11 11 14 17 9 8 9 11 15 15
10 12 13 14 15 15 17 18 18 17 20 11 5 6 6 9 3 5 6 6 9 6 8 4 6 8 7 5 7 10 11 13 17 17 15 12 10 9 12 12 15 15 7 10 11 13 15
9 11 12 13 14 14 15 16 17 17 19 12 6 6 6 8 3 10 6 9 8 10 11 7 3 2 6 9 11 13 11 12 11 15 18 16 12 11 12 14 18 14 9 7 3 12 11
8 9 10 12 13 14 14 15 16 17 17 12 3 7 6 8 6 6 5 7 7 11 7 9 9 7 10 9 11 11 14 15 13 14 12 14 13 15 13 14 12 16 7 2 11 3 10
7 8 9 10 12 11 12 13 15 16 17 12 4 4 6 6 5 4 5 8 5 6 9 6 3 9 7 12 12 9 10 9 15 12 13 13 13 12 13 16 18 3 7 10 7 5 11
9 7 8 9 12 9 10 12 13 13 15 15 4 2 4 6 7 6 8 10 10 8 9 1 6 8 3 7 10 7 11 6 4 10 8 7 8 5 6 8 8 6 8 6 5 6 5
Wind_Direction
40 38 36 33 30 27 23 19 15 11 4 358 354 348 346 343 338 333 333 328 323 326 317 315 311 306 282 233 68 117 172 172 211 232 232 240 230 245 236 243 232 259 98 246 241 280 326
36 37 35 32 29 23 19 15 11 6 3 357 351 345 343 340 335 332 331 327 323 323 317 308 304 302 255 259 86 140 178 180 235 231 183 238 317 331 311 259 260 50 278 275 264 257 263
37 35 33 28 26 22 17 11 7 2 359 354 350 344 341 337 333 332 328 324 323 320 317 290 284 276 266 352 58 156 184 228 186 263 198 321 303 243 21 240 241 263 261 249 223 255 293
35 31 29 26 24 19 14 8 4 358 354 351 347 344 338 336 331 328 324 321 317 325 309 297 265 262 284 85 165 184 191 178 215 209 303 255 267 276 257 317 257 240 244 255 174 8 103
31 29 25 22 20 15 10 5 0 356 351 347 344 342 337 332 328 324 320 316 296 287 270 252 245 243 251 141 198 191 199 218 184 200 196 267 258 262 226 242 242 216 250 225 128 103 331
25 24 19 15 14 11 7 3 357 353 349 345 342 338 334 330 326 321 315 290 297 263 221 227 262 258 214 219 166 175 175 236 196 193 216 238 238 241 213 238 252 301 203 241 257 181 225
27 22 17 15 11 7 4 0 355 350 347 344 340 336 332 327 323 321 314 218 212 192 224 257 85 267 143 118 151 193 179 201 218 216 230 207 249 221 232 322 352 318 305 301 302 85 269
25 26 17 11 7 6 2 357 353 349 345 342 338 335 331 325 320 315 278 270 46 340 293 214 246 269 277 214 182 189 189 206 198 220 220 198 234 32 59 285 275 264 268 261 262 30 258
18 15 12 7 10 3 358 354 350 347 343 339 336 333 331 324 318 283 282 23 332 314 260 202 218 221 192 211 222 184 198 217 203 224 197 258 66 75 229 228 252 242 269 300 295 304 259
13 15 9 11 5 1 356 351 347 344 340 335 334 331 330 325 296 344 239 28 312 319 266 163 194 210 193 219 230 187 199 207 217 247 216 254 180 219 219 249 244 280 136 283 271 271 291
13 16 7 10 2 0 355 349 345 341 335 333 330 327 325 328 316 237 35 299 321 245 259 137 132 99 192 207 129 188 183 207 247 202 231 180 217 207 232 247 230 324 331 283 290 276 276
13 10 5 5 1 356 352 345 341 338 333 330 325 324 323 221 221 285 301 296 242 228 239 158 147 185 184 208 174 143 183 224 242 250 220 275 269 214 231 214 244 353 265 255 257 258 255
10 9 3 4 359 354 346 342 340 337 333 328 322 317 289 306 355 345 290 237 223 239 131 155 183 175 193 184 198 188 186 197 205 203 212 211 205 213 248 228 204 239 262 258 239 228 246
9 4 360 359 357 350 345 343 340 337 334 328 319 315 198 257 310 283 245 225 243 212 195 51 244 196 199 179 201 191 192 207 222 220 274 211 200 200 183 241 253 210 253 274 293 285 17
7 4 360 357 354 350 346 344 341 337 335 331 312 202 227 188 224 245 234 223 219 240 63 210 174 218 206 190 212 197 208 213 208 225 244 217 224 129 201 220 232 237 253 268 278 268 264
6 8 3 358 356 349 349 345 342 338 334 335 294 240 156 190 217 220 232 241 234 16 325 277 219 208 197 199 195 193 199 216 218 198 239 328 254 178 175 232 235 269 311 236 229 268 279
5 2 0 360 353 352 352 347 344 341 334 332 250 225 104 166 198 218 222 229 230 153 255 236 262 199 253 185 202 195 223 113 233 181 220 239 227 164 164 219 250 181 232 251 284 290 305
359 1 357 359 352 357 350 347 347 347 338 279 284 229 132 198 205 218 224 239 28 222 219 244 294 278 274 218 225 263 227 191 194 237 201 222 224 251 229 245 225 293 293 225 252 228 270
0 360 357 357 360 352 351 349 347 349 356 313 268 47 165 235 224 212 223 259 188 228 222 213 228 256 219 230 266 246 240 82 166 245 235 205 228 240 243 244 197 243 243 252 269 280 262
358 358 358 357 355 356 353 350 347 345 350 295 274 193 149 211 280 298 216 221 204 248 261 241 262 237 206 221 213 210 241 136 211 260 21 359 255 249 266 93 276 194 243 239 229 243 245
350 356 355 357 356 357 355 352 348 344 343 283 246 360 3 192 214 229 275 228 217 182 240 206 212 233 218 226 199 226 229 166 213 122 221 235 249 261 260 278 275 266 251 220 229 239 255
345 348 351 354 354 357 356 355 352 345 338 253 313 331 198 334 342 242 153 220 242 224 196 213 242 208 229 240 238 222 210 227 225 179 230 226 243 260 279 269 260 257 246 261 275 235 247
339 340 351 351 353 359 357 359 359 354 340 337 2 247 276 118 198 235 188 215 235 269 184 302 212 242 215 233 319 23 330 347 345 307 250 238 241 248 257 252 248 231 242 257 251 244 251
359 354 352 350 354 359 358 0 1 359 359 308 20 287 272 256 236 209 265 201 229 198 292 198 281 249 45 322 280 265 262 250 247 243 244 268 245 265 268 273 255 244 268 305 249 260 254
348 348 348 349 354 353 355 360 360 360 351 317 5 322 309 284 269 157 256 220 236 119 246 235 212 31 329 284 252 234 228 235 235 231 224 225 258 257 255 259 274 265 182 234 246 259 263
336 341 341 343 344 347 357 1 357 1 353 314 55 314 287 302 63 358 255 231 241 210 205 220 168 279 277 258 216 233 228 214 215 222 215 219 215 261 252 253 259 275 331 67 299 266 307
320 333 335 339 339 349 356 358 357 360 352 325 15 350 276 285 60 330 271 308 241 289 275 177 187 226 226 245 252 231 232 246 233 206 179 211 209 226 231 254 249 287 51 302 227 353 355
294 316 325 331 331 343 351 355 354 356 352 333 13 4 319 304 324 349 305 289 289 275 261 84 180 220 230 226 245 244 250 233 233 242 198 201 212 227 234 246 243 36 285 261 33 12 359
274 293 312 321 327 339 344 349 350 354 348 339 288 54 328 267 349 326 290 294 294 330 321 274 320 288 238 252 233 261 245 233 273 234 221 256 231 268 261 235 81 43 38 35 358 358 348